This is the latest recevied weather packets stored in our database for station/object LU3HGB-WX. If no packets are shown the sender has not sent any weather packets the latest 10 day(s).
| Time | Temp. | Humidity | Pressure | Rain* | Wind** | Luminosity | Snow |
|---|---|---|---|---|---|---|---|
| 1788508359 | 2.78° C | 69% | 1020 hPa | 0 mm | - | 0 W/m² | - |
| 1788508059 | 2.78° C | 75% | 1021 hPa | 0 mm | - | 0 W/m² | - |
| 1788507760 | 3.33° C | 72% | 1021 hPa | 0 mm | - | 0 W/m² | - |
| 1788507460 | 2.78° C | 72% | 1021 hPa | 0 mm | - | 0 W/m² | - |
| 1788507159 | 3.33° C | 68% | 1021 hPa | 0 mm | - | 0 W/m² | - |
| 1788506860 | 3.33° C | 68% | 1021 hPa | 0 mm | - | 0 W/m² | - |
| 1788506559 | 3.33° C | 70% | 1021 hPa | 0 mm | - | 0 W/m² | - |
| 1788506260 | 3.89° C | 66% | 1021 hPa | 0 mm | - | 0 W/m² | - |
| 1788505959 | 3.89° C | 66% | 1021 hPa | 0 mm | - | 0 W/m² | - |
| 1788505659 | 3.89° C | 67% | 1021 hPa | 0 mm | - | 0 W/m² | - |
| 1788505360 | 3.89° C | 68% | 1021 hPa | 0 mm | - | 0 W/m² | - |
| 1788505059 | 3.89° C | 68% | 1021 hPa | 0 mm | - | 0 W/m² | - |
| 1788504760 | 3.89° C | 66% | 1021 hPa | 0 mm | - | 0 W/m² | - |
| 1788504460 | 3.33° C | 72% | 1021 hPa | 0 mm | - | 0 W/m² | - |
| 1788504159 | 3.33° C | 72% | 1021 hPa | 0 mm | - | 0 W/m² | - |
| 1788503861 | 3.89° C | 72% | 1021 hPa | 0 mm | - | 0 W/m² | - |
| 1788503559 | 4.44° C | 70% | 1021 hPa | 0 mm | - | 0 W/m² | - |
| 1788503260 | 5° C | 69% | 1021 hPa | 0 mm | - | 0 W/m² | - |
| 1788502960 | 5° C | 66% | 1021 hPa | 0 mm | - | 0 W/m² | - |
| 1788502660 | 4.44° C | 67% | 1021 hPa | 0 mm | - | 0 W/m² | - |
| 1788502359 | 5° C | 66% | 1021 hPa | 0 mm | - | 0 W/m² | - |
| 1788502059 | 5° C | 68% | 1021 hPa | 0 mm | - | 0 W/m² | - |
| 1788501759 | 5° C | 67% | 1020 hPa | 0 mm | - | 0 W/m² | - |
| 1788501459 | 5.56° C | 70% | 1020 hPa | 0 mm | - | 0 W/m² | - |
| 1788501160 | 5.56° C | 68% | 1020 hPa | 0 mm | - | 0 W/m² | - |
* Rain latest hour (hover to see other rain measurements)
** Current wind speed in m/s (hover to see current wind gust speed)